星链-5144 (STARLINK-5144 )

导读 | 豆包AI

STARLINK-5144是美国SpaceX公司星链星座的一员,于2022年10月20日发射,属于全球低轨宽带互联网星座计划。卫星采用平板设计与氪/氩霍尔推进器,运行在约550公里近地轨道,搭载Ku/Ka波段相控阵天线,支持激光星间链路,可提供低时延高速宽带服务,具备自主避撞能力,寿命末期将主动离轨再入大气层销毁,服务全球互联网接入覆盖。

Basic Information
目录编号:
54072
目录名称:
STARLINK-5144
国际标识:
2022-136X
轨道中心:
EARTH
卫星名称:
星链-5144
卫星全名:
星链-5144 (STARLINK-5144 )
卫星状态:
已陨落 最后检测时间 2025-01-09
发射日期:
2022-10-20 UTC
国别 :
美国 (US)
星等 :
--
Orbit Information
数据来源 国际轨道数据
星历时间: 2025-01-09T18:48:02+0800
轨道信息已过期430天
半长轴: 6521.669km
偏心率: 0.0003898
轨道倾角: 53.188°
近地点辐角 314.731°
升交点赤经 61.467°
平近点角 139.002°
近地点: 140.991km
远地点: 146.077km
周期: 87.357分钟
每日圈数: 16.484079
Detailed Information
固有亮度:
5
最大亮度:
2.5
卫星平台:
Starlink v1.5
覆盖范围:
全球
运营商:
太空探索技术公司
运营商所在国:
美国
制造商(研发单位):
太空探索技术公司
制造商所在国:
美国
使用方式:
暂无
Satellite Introduction
星链(Starlink)计划是由太空探索技术公司(SpaceX)提出的一个巨型低轨卫星互联网星座项目,计划在2019年至2024年间在太空搭建由约1.2万颗卫星组成的“星链”网络,其中1584颗将部署在地球上空550千米处的近地轨道,并从2020年开始工作。该卫星仍在工作。